| time (UTC) | temp C | wind direction | speed KPH | gust KPH | rain 1hr cm | rain 24hr cm | rain mn cm | humidity % | barometer mb |
| 20260904011323 | 30 | 129 | 0.0 | 3.2 | 0.00 | 2.16 | 0.18 | 82 | 1015.5 |
| 20260904010819 | 30 | 122 | 0.0 | 3.2 | 0.00 | 2.16 | 0.18 | 82 | 1015.4 |
| 20260904010317 | 30 | 113 | 0.0 | 6.4 | 0.00 | 2.16 | 0.18 | 82 | 1015.4 |
| 20260904010038 | 30 | 138 | 3.2 | 9.7 | 0.00 | 2.16 | 0.18 | 82 | 1015.2 |
| 20260904005816 | 30 | 122 | 4.8 | 9.7 | 0.00 | 2.16 | 0.18 | 82 | 1015.3 |
| 20260904005333 | 30 | 125 | 4.8 | 9.7 | 0.00 | 2.16 | 0.18 | 82 | 1015.3 |
| 20260904004849 | 30 | 124 | 4.8 | 9.7 | 0.00 | 2.16 | 0.18 | 82 | 1015.3 |
| 20260904004550 | 30 | 135 | 4.8 | 8.0 | 0.00 | 2.16 | 0.18 | 82 | 1015.2 |
| 20260904004325 | 30 | 108 | 3.2 | 8.0 | 0.00 | 2.16 | 0.18 | 82 | 1015.2 |
| 20260904003823 | 30 | 125 | 4.8 | 8.0 | 0.00 | 2.16 | 0.18 | 82 | 1015.1 |
| 20260904003322 | 30 | 121 | 4.8 | 6.4 | 0.00 | 2.16 | 0.18 | 82 | 1015.0 |
| 20260904003034 | 30 | 136 | 1.6 | 6.4 | 0.00 | 2.16 | 0.18 | 82 | 1014.9 |
| 20260904002839 | 30 | 137 | 3.2 | 9.7 | 0.00 | 2.16 | 0.18 | 82 | 1015.0 |
| 20260904002334 | 30 | 131 | 3.2 | 9.7 | 0.00 | 2.16 | 0.18 | 82 | 1015.0 |
| 20260904001851 | 30 | 128 | 4.8 | 9.7 | 0.00 | 2.16 | 0.18 | 82 | 1014.9 |
| 20260904001541 | 30 | 121 | 4.8 | 8.0 | 0.00 | 2.16 | 0.18 | 82 | 1014.9 |
| 20260904001346 | 30 | 158 | 4.8 | 9.7 | 0.00 | 2.16 | 0.18 | 82 | 1015.0 |
| 20260904000824 | 30 | 125 | 3.2 | 9.7 | 0.00 | 2.16 | 0.18 | 82 | 1015.0 |
| 20260904000340 | 30 | 148 | 4.8 | 8.0 | 0.00 | 2.16 | 0.18 | 82 | 1014.9 |
| 20260904000052 | 30 | 125 | 3.2 | 8.0 | 0.00 | 2.16 | 0.18 | 82 | 1014.8 |
| 20260903235816 | 30 | 128 | 3.2 | 8.0 | 0.00 | 2.16 | 0.18 | 82 | 1015.0 |
| 20260903235334 | 30 | 111 | 1.6 | 6.4 | 0.00 | 2.16 | 0.18 | 82 | 1014.9 |
| 20260903234830 | 30 | 143 | 1.6 | 8.0 | 0.00 | 2.16 | 0.18 | 82 | 1014.9 |
| 20260903234508 | 30 | 137 | 3.2 | 8.0 | 0.00 | 2.16 | 0.18 | 82 | 1014.8 |
| 20260903234328 | 30 | 139 | 4.8 | 8.0 | 0.00 | 2.16 | 0.18 | 82 | 1014.8 |
| 20260903233847 | 30 | 127 | 3.2 | 8.0 | 0.00 | 2.16 | 0.18 | 82 | 1014.9 |
| 20260903233322 | 30 | 116 | 4.8 | 8.0 | 0.00 | 2.16 | 0.18 | 82 | 1014.9 |
| 20260903233027 | 30 | 132 | 0.0 | 9.7 | 0.00 | 2.16 | 0.18 | 82 | 1014.7 |
| 20260903232820 | 30 | 94 | 1.6 | 9.7 | 0.00 | 2.16 | 0.18 | 82 | 1014.7 |
| 20260903231826 | 30 | 128 | 4.8 | 9.7 | 0.00 | 2.16 | 0.18 | 82 | 1014.5 |
| 20260903231528 | 30 | 155 | 3.2 | 9.7 | 0.00 | 2.16 | 0.18 | 82 | 1014.4 |
| 20260903231324 | 30 | 110 | 6.4 | 9.7 | 0.00 | 2.16 | 0.18 | 82 | 1014.6 |
| 20260903230821 | 30 | 150 | 3.2 | 9.7 | 0.00 | 2.16 | 0.18 | 82 | 1014.5 |
| 20260903230338 | 30 | 125 | 3.2 | 6.4 | 0.00 | 2.16 | 0.18 | 82 | 1014.5 |
| 20260903230021 | 30 | 342 | 0.0 | 0.0 | 0.00 | 2.16 | 0.18 | 83 | 1014.6 |
| 20260903225855 | 30 | 342 | 0.0 | 0.0 | 0.00 | 2.16 | 0.18 | 83 | 1014.8 |
| 20260903225331 | 30 | 342 | 0.0 | 0.0 | 0.00 | 2.16 | 0.18 | 82 | 1014.8 |
| 20260903224848 | 30 | 342 | 0.0 | 0.0 | 0.00 | 2.16 | 0.18 | 82 | 1014.8 |
| 20260903224515 | 30 | 342 | 0.0 | 0.0 | 0.00 | 2.16 | 0.18 | 83 | 1014.8 |
| 20260903224325 | 30 | 342 | 0.0 | 0.0 | 0.00 | 2.16 | 0.18 | 83 | 1015.0 |
| 20260903223843 | 30 | 342 | 0.0 | 0.0 | 0.00 | 2.16 | 0.18 | 82 | 1014.9 |
| 20260903223320 | 30 | 342 | 0.0 | 0.0 | 0.00 | 2.16 | 0.18 | 83 | 1014.8 |
| 20260903223040 | 30 | 342 | 0.0 | 0.0 | 0.00 | 2.16 | 0.18 | 83 | 1014.7 |
| 20260903222820 | 30 | 342 | 0.0 | 1.6 | 0.00 | 2.16 | 0.18 | 82 | 1014.7 |
| 20260903222338 | 30 | 342 | 0.0 | 3.2 | 0.00 | 2.16 | 0.18 | 82 | 1014.7 |
| 20260903221816 | 30 | 342 | 1.6 | 3.2 | 0.00 | 2.16 | 0.18 | 82 | 1014.6 |
| 20260903221558 | 30 | 356 | 0.0 | 3.2 | 0.00 | 2.16 | 0.18 | 82 | 1014.5 |
| 20260903221332 | 30 | 2 | 0.0 | 1.6 | 0.00 | 2.16 | 0.18 | 82 | 1014.6 |
| 20260903220830 | 30 | 339 | 0.0 | 0.0 | 0.00 | 2.16 | 0.18 | 82 | 1014.5 |
| 20260903220326 | 30 | 339 | 0.0 | 0.0 | 0.00 | 2.16 | 0.18 | 83 | 1014.4 |
| 20260903220053 | 30 | 340 | 0.0 | 0.0 | 0.00 | 2.16 | 0.18 | 82 | 1014.3 |
| 20260903215823 | 30 | 339 | 0.0 | 0.0 | 0.00 | 2.16 | 0.18 | 83 | 1014.3 |
| 20260903215320 | 30 | 339 | 0.0 | 0.0 | 0.00 | 2.16 | 0.18 | 82 | 1014.2 |
| 20260903214541 | 29 | 339 | 0.0 | 3.2 | 0.00 | 2.16 | 0.18 | 82 | 1014.1 |
| 20260903214326 | 30 | 339 | 0.0 | 6.4 | 0.00 | 2.16 | 0.18 | 82 | 1014.0 |
| 20260903213823 | 29 | 339 | 1.6 | 6.4 | 0.00 | 2.16 | 0.18 | 82 | 1014.0 |
| 20260903213319 | 30 | 54 | 3.2 | 4.8 | 0.00 | 2.16 | 0.18 | 82 | 1014.0 |
| 20260903213016 | 30 | 346 | 1.6 | 6.4 | 0.00 | 2.16 | 0.18 | 82 | 1013.9 |
| 20260903212837 | 30 | 25 | 1.6 | 8.0 | 0.00 | 2.16 | 0.18 | 82 | 1014.0 |
| 20260903211815 | 31 | 357 | 6.4 | 12.9 | 0.00 | 2.16 | 0.18 | 80 | 1013.8 |
| 20260903211533 | 31 | 346 | 4.8 | 12.9 | 0.00 | 2.16 | 0.18 | 79 | 1013.6 |
| 20260903211331 | 32 | 356 | 6.4 | 12.9 | 0.00 | 2.16 | 0.18 | 78 | 1013.8 |
| 20260903210827 | 32 | 128 | 0.0 | 1.6 | 0.00 | 2.16 | 0.18 | 77 | 1013.7 |
| 20260903210344 | 32 | 129 | 0.0 | 3.2 | 0.00 | 2.16 | 0.18 | 77 | 1013.8 |
| 20260903210108 | 32 | 129 | 0.0 | 8.0 | 0.00 | 2.16 | 0.18 | 76 | 1013.6 |
| 20260903205819 | 32 | 129 | 1.6 | 8.0 | 0.00 | 2.16 | 0.18 | 76 | 1013.9 |
| 20260903205315 | 32 | 124 | 3.2 | 11.3 | 0.00 | 2.16 | 0.18 | 74 | 1014.0 |
| 20260903204833 | 32 | 159 | 3.2 | 12.9 | 0.00 | 2.16 | 0.18 | 76 | 1014.1 |
| 20260903204604 | 32 | 148 | 0.0 | 12.9 | 0.00 | 2.16 | 0.18 | 75 | 1014.1 |
| 20260903204329 | 32 | 124 | 6.4 | 12.9 | 0.00 | 2.16 | 0.18 | 75 | 1014.2 |
| 20260903203825 | 32 | 131 | 4.8 | 9.7 | 0.00 | 2.16 | 0.18 | 76 | 1014.1 |
| 20260903203342 | 32 | 146 | 3.2 | 12.9 | 0.00 | 2.16 | 0.18 | 76 | 1013.8 |
| 20260903203009 | 32 | 162 | 1.6 | 12.9 | 0.00 | 2.16 | 0.18 | 76 | 1013.5 |
| 20260903202818 | 32 | 139 | 3.2 | 12.9 | 0.00 | 2.16 | 0.18 | 77 | 1013.6 |
| 20260903202316 | 32 | 127 | 4.8 | 12.9 | 0.00 | 2.16 | 0.18 | 77 | 1013.5 |
| 20260903201814 | 33 | 143 | 6.4 | 12.9 | 0.00 | 2.16 | 0.18 | 76 | 1013.5 |
| 20260903201551 | 32 | 174 | 4.8 | 11.3 | 0.00 | 2.16 | 0.18 | 77 | 1013.4 |
| 20260903201331 | 33 | 176 | 6.4 | 11.3 | 0.00 | 2.16 | 0.18 | 76 | 1013.7 |
| 20260903200825 | 33 | 81 | 3.2 | 14.5 | 0.00 | 2.16 | 0.18 | 78 | 1013.8 |
| 20260903200342 | 32 | 147 | 6.4 | 14.5 | 0.00 | 2.16 | 0.18 | 77 | 1013.9 |
| 20260903200011 | 32 | 172 | 4.8 | 16.1 | 0.00 | 2.16 | 0.18 | 78 | 1013.8 |
| 20260903195818 | 32 | 199 | 6.4 | 16.1 | 0.00 | 2.16 | 0.18 | 78 | 1013.9 |
| 20260903195335 | 32 | 174 | 6.4 | 16.1 | 0.00 | 2.16 | 0.18 | 78 | 1013.8 |
| 20260903194853 | 32 | 127 | 6.4 | 16.1 | 0.00 | 2.16 | 0.18 | 78 | 1013.6 |
| 20260903194529 | 32 | 144 | 4.8 | 12.9 | 0.00 | 2.16 | 0.18 | 78 | 1013.5 |
| 20260903194329 | 32 | 227 | 4.8 | 14.5 | 0.00 | 2.16 | 0.18 | 79 | 1013.8 |
| 20260903193826 | 32 | 113 | 4.8 | 14.5 | 0.00 | 2.16 | 0.18 | 79 | 1013.9 |
| 20260903193322 | 32 | 91 | 3.2 | 8.0 | 0.00 | 2.16 | 0.18 | 80 | 1014.1 |
| 20260903193017 | 32 | 148 | 1.6 | 14.5 | 0.00 | 2.16 | 0.18 | 80 | 1013.9 |
| 20260903192819 | 32 | 129 | 1.6 | 14.5 | 0.00 | 2.16 | 0.18 | 80 | 1014.0 |
| 20260903192316 | 32 | 156 | 6.4 | 16.1 | 0.00 | 2.16 | 0.18 | 79 | 1014.0 |
| 20260903191815 | 32 | 130 | 11.3 | 16.1 | 0.00 | 2.16 | 0.18 | 78 | 1014.1 |
| 20260903191509 | 32 | 171 | 4.8 | 16.1 | 0.00 | 2.16 | 0.18 | 79 | 1013.9 |
| 20260903191331 | 32 | 151 | 6.4 | 16.1 | 0.00 | 2.16 | 0.18 | 79 | 1014.0 |
| 20260903190828 | 32 | 160 | 9.7 | 16.1 | 0.00 | 2.16 | 0.18 | 79 | 1014.0 |
| 20260903190321 | 32 | 125 | 4.8 | 14.5 | 0.00 | 2.16 | 0.18 | 79 | 1013.9 |
| 20260903190043 | 32 | 122 | 6.4 | 14.5 | 0.00 | 2.16 | 0.18 | 79 | 1014.0 |
| 20260903185838 | 32 | 98 | 8.0 | 14.5 | 0.00 | 2.16 | 0.18 | 78 | 1014.1 |
| 20260903185355 | 33 | 108 | 8.0 | 14.5 | 0.00 | 2.16 | 0.18 | 79 | 1014.2 |
| 20260903184826 | 32 | 122 | 6.4 | 17.7 | 0.00 | 2.16 | 0.18 | 79 | 1014.2 |
| 20260903184551 | 32 | 153 | 8.0 | 17.7 | 0.00 | 2.16 | 0.18 | 78 | 1014.1 |
| 20260903184322 | 32 | 119 | 9.7 | 16.1 | 0.00 | 2.16 | 0.18 | 79 | 1014.1 |
| 20260903183819 | 32 | 128 | 6.4 | 17.7 | 0.00 | 2.16 | 0.18 | 79 | 1014.1 |
| 20260903183318 | 32 | 139 | 8.0 | 17.7 | 0.00 | 2.16 | 0.18 | 80 | 1014.1 |
| 20260903183038 | 32 | 61 | 8.0 | 17.7 | 0.00 | 2.16 | 0.18 | 79 | 1014.0 |
| 20260903182350 | 32 | 136 | 6.4 | 14.5 | 0.00 | 2.16 | 0.18 | 79 | 1014.0 |
| 20260903181825 | 32 | 133 | 9.7 | 14.5 | 0.00 | 2.16 | 0.18 | 77 | 1014.2 |
| 20260903181548 | 32 | 142 | 3.2 | 11.3 | 0.00 | 2.16 | 0.18 | 78 | 1014.2 |
| 20260903181323 | 32 | 134 | 3.2 | 11.3 | 0.00 | 2.16 | 0.18 | 79 | 1014.3 |
| 20260903180820 | 32 | 141 | 3.2 | 6.4 | 0.00 | 2.16 | 0.18 | 79 | 1014.2 |
| 20260903180317 | 32 | 81 | 3.2 | 12.9 | 0.00 | 2.16 | 0.18 | 78 | 1014.2 |
| 20260903180036 | 32 | 144 | 4.8 | 12.9 | 0.00 | 2.16 | 0.18 | 78 | 1014.1 |
| 20260903175835 | 32 | 147 | 8.0 | 12.9 | 0.00 | 2.16 | 0.18 | 78 | 1014.3 |
| 20260903175353 | 32 | 127 | 1.6 | 8.0 | 0.00 | 2.16 | 0.18 | 79 | 1014.5 |
| 20260903174828 | 32 | 147 | 3.2 | 9.7 | 0.00 | 2.16 | 0.18 | 79 | 1014.6 |
| 20260903174555 | 32 | 125 | 1.6 | 9.7 | 0.00 | 2.16 | 0.18 | 79 | 1014.6 |
| 20260903174324 | 32 | 136 | 4.8 | 9.7 | 0.00 | 2.16 | 0.18 | 79 | 1014.7 |
| 20260903173822 | 32 | 138 | 4.8 | 9.7 | 0.00 | 2.16 | 0.18 | 79 | 1014.8 |
| 20260903173340 | 32 | 134 | 3.2 | 12.9 | 0.00 | 2.16 | 0.18 | 80 | 1015.0 |
| 20260903173017 | 32 | 149 | 4.8 | 12.9 | 0.00 | 2.16 | 0.18 | 80 | 1014.8 |
| 20260903172836 | 32 | 120 | 6.4 | 12.9 | 0.00 | 2.16 | 0.18 | 80 | 1014.9 |
| 20260903172353 | 32 | 96 | 6.4 | 9.7 | 0.00 | 2.16 | 0.18 | 79 | 1015.1 |
| 20260903171828 | 32 | 140 | 3.2 | 11.3 | 0.00 | 2.16 | 0.18 | 80 | 1015.1 |
| 20260903171514 | 32 | 138 | 6.4 | 12.9 | 0.00 | 2.16 | 0.18 | 80 | 1015.1 |
| 20260903171345 | 32 | 130 | 6.4 | 12.9 | 0.00 | 2.16 | 0.18 | 81 | 1015.3 |
| 20260903170822 | 32 | 126 | 6.4 | 16.1 | 0.00 | 2.16 | 0.18 | 81 | 1015.5 |
| 20260903170318 | 32 | 133 | 6.4 | 16.1 | 0.00 | 2.16 | 0.18 | 81 | 1015.4 |
| 20260903170035 | 31 | 101 | 8.0 | 16.1 | 0.00 | 2.16 | 0.18 | 81 | 1015.4 |
| 20260903165815 | 32 | 142 | 9.7 | 14.5 | 0.00 | 2.16 | 0.18 | 81 | 1015.6 |
| 20260903165327 | 32 | 120 | 9.7 | 14.5 | 0.00 | 2.16 | 0.18 | 79 | 1015.5 |
| 20260903164825 | 32 | 132 | 4.8 | 12.9 | 0.00 | 2.16 | 0.18 | 81 | 1015.5 |
| 20260903164519 | 32 | 78 | 4.8 | 16.1 | 0.00 | 2.16 | 0.18 | 81 | 1015.4 |
| 20260903164343 | 32 | 132 | 6.4 | 16.1 | 0.00 | 2.16 | 0.18 | 81 | 1015.6 |
| 20260903163820 | 32 | 131 | 11.3 | 16.1 | 0.00 | 2.16 | 0.18 | 80 | 1015.7 |
| 20260903163337 | 32 | 117 | 11.3 | 16.1 | 0.00 | 2.16 | 0.18 | 79 | 1015.8 |
| 20260903163037 | 33 | 124 | 4.8 | 12.9 | 0.00 | 2.16 | 0.18 | 78 | 1015.8 |
| 20260903162854 | 33 | 117 | 3.2 | 9.7 | 0.00 | 2.16 | 0.18 | 76 | 1016.0 |
| 20260903162330 | 33 | 150 | 1.6 | 4.8 | 0.00 | 2.16 | 0.18 | 77 | 1016.0 |
| 20260903161826 | 33 | 215 | 0.0 | 4.8 | 0.00 | 2.16 | 0.18 | 78 | 1016.0 |
| 20260903161600 | 32 | 181 | 0.0 | 4.8 | 0.00 | 2.16 | 0.18 | 77 | 1015.9 |
| 20260903161501 | 32 | 155 | 0.0 | 1.6 | 0.00 | 2.16 | 0.18 | 78 | 1016.0 |
| 20260903161324 | 33 | 307 | 0.0 | 1.6 | 0.00 | 2.16 | 0.18 | 78 | 1016.1 |
| 20260903160842 | 33 | 308 | 0.0 | 6.4 | 0.00 | 2.16 | 0.18 | 78 | 1016.2 |
| 20260903160317 | 33 | 133 | 1.6 | 6.4 | 0.00 | 2.16 | 0.18 | 78 | 1016.2 |
| 20260903160050 | 32 | 102 | 1.6 | 8.0 | 0.00 | 2.16 | 0.18 | 79 | 1016.0 |
| 20260903155834 | 32 | 150 | 1.6 | 8.0 | 0.00 | 2.16 | 0.18 | 79 | 1016.1 |
| 20260903155351 | 32 | 107 | 3.2 | 8.0 | 0.00 | 2.16 | 0.18 | 79 | 1016.1 |
| 20260903154829 | 32 | 200 | 1.6 | 4.8 | 0.00 | 2.16 | 0.18 | 80 | 1016.2 |
| 20260903154547 | 32 | 167 | 0.0 | 4.8 | 0.00 | 2.16 | 0.18 | 80 | 1016.1 |
| 20260903154324 | 32 | 120 | 1.6 | 4.8 | 0.00 | 2.16 | 0.18 | 79 | 1016.2 |
| 20260903153823 | 32 | 138 | 1.6 | 4.8 | 0.00 | 2.16 | 0.18 | 79 | 1016.1 |
| 20260903153320 | 32 | 108 | 1.6 | 6.4 | 0.00 | 2.16 | 0.18 | 79 | 1016.2 |
| 20260903153027 | 32 | 164 | 0.0 | 6.4 | 0.00 | 2.16 | 0.18 | 80 | 1016.2 |
| 20260903152817 | 32 | 219 | 1.6 | 6.4 | 0.00 | 2.16 | 0.18 | 80 | 1016.3 |
| 20260903152317 | 32 | 131 | 0.0 | 8.0 | 0.00 | 2.16 | 0.18 | 80 | 1016.2 |
| 20260903151833 | 31 | 151 | 1.6 | 3.2 | 0.00 | 2.16 | 0.18 | 82 | 1016.2 |
| 20260903151513 | 31 | 282 | 0.0 | 0.0 | 0.00 | 2.16 | 0.18 | 82 | 1016.0 |
| 20260903151330 | 31 | 259 | 0.0 | 0.0 | 0.00 | 2.16 | 0.18 | 82 | 1016.0 |
| 20260903150826 | 31 | 133 | 0.0 | 8.0 | 0.00 | 2.16 | 0.18 | 82 | 1016.0 |
| 20260903150325 | 31 | 132 | 3.2 | 8.0 | 0.00 | 2.16 | 0.18 | 82 | 1016.1 |
| 20260903150035 | 31 | 139 | 0.0 | 8.0 | 0.00 | 2.16 | 0.18 | 82 | 1015.9 |
| 20260903145842 | 31 | 139 | 1.6 | 9.7 | 0.00 | 2.16 | 0.18 | 82 | 1016.0 |
| 20260903145317 | 31 | 154 | 3.2 | 9.7 | 0.00 | 2.16 | 0.18 | 82 | 1016.0 |
| 20260903144816 | 31 | 136 | 4.8 | 9.7 | 0.00 | 2.16 | 0.18 | 82 | 1016.0 |
| 20260903144557 | 31 | 155 | 3.2 | 9.7 | 0.00 | 2.16 | 0.18 | 82 | 1015.9 |
| 20260903144332 | 32 | 138 | 3.2 | 6.4 | 0.00 | 2.16 | 0.18 | 82 | 1016.0 |
| 20260903143829 | 32 | 167 | 0.0 | 8.0 | 0.00 | 2.16 | 0.18 | 82 | 1016.0 |
| 20260903143326 | 32 | 123 | 1.6 | 6.4 | 0.00 | 2.16 | 0.18 | 83 | 1015.9 |
| 20260903143039 | 31 | 136 | 1.6 | 8.0 | 0.00 | 2.16 | 0.18 | 83 | 1015.8 |
| 20260903142842 | 31 | 150 | 3.2 | 8.0 | 0.00 | 2.16 | 0.18 | 83 | 1015.8 |
| 20260903142319 | 31 | 155 | 1.6 | 8.0 | 0.00 | 2.16 | 0.18 | 82 | 1015.9 |
| 20260903141817 | 31 | 235 | 1.6 | 6.4 | 0.00 | 2.16 | 0.18 | 83 | 1016.0 |
| 20260903141508 | 31 | 151 | 0.0 | 6.4 | 0.00 | 2.16 | 0.18 | 83 | 1015.8 |
| 20260903141316 | 31 | 285 | 1.6 | 6.4 | 0.00 | 2.16 | 0.18 | 83 | 1016.0 |
| 20260903140832 | 31 | 293 | 1.6 | 4.8 | 0.00 | 2.16 | 0.18 | 83 | 1015.9 |
| 20260903140329 | 31 | 128 | 0.0 | 1.6 | 0.00 | 2.16 | 0.18 | 84 | 1015.8 |
| 20260903140058 | 31 | 131 | 0.0 | 1.6 | 0.00 | 2.16 | 0.18 | 84 | 1015.7 |
| 20260903135827 | 31 | 131 | 0.0 | 4.8 | 0.00 | 2.16 | 0.18 | 85 | 1015.8 |
| 20260903135323 | 30 | 120 | 0.0 | 6.4 | 0.00 | 2.16 | 0.18 | 85 | 1015.8 |
| 20260903134820 | 30 | 103 | 3.2 | 8.0 | 0.00 | 2.16 | 0.18 | 85 | 1015.8 |
| 20260903134537 | 30 | 108 | 3.2 | 8.0 | 0.00 | 2.16 | 0.18 | 85 | 1015.6 |
| 20260903134334 | 30 | 125 | 4.8 | 8.0 | 0.00 | 2.16 | 0.18 | 85 | 1015.8 |
| 20260903133830 | 30 | 120 | 3.2 | 8.0 | 0.00 | 2.16 | 0.18 | 85 | 1015.6 |
| 20260903133328 | 30 | 120 | 3.2 | 8.0 | 0.00 | 2.16 | 0.18 | 84 | 1015.6 |
| 20260903133101 | 30 | 148 | 1.6 | 8.0 | 0.00 | 2.16 | 0.18 | 85 | 1015.4 |
| 20260903132825 | 30 | 122 | 1.6 | 8.0 | 0.00 | 2.16 | 0.18 | 86 | 1015.4 |
| 20260903132323 | 30 | 115 | 0.0 | 1.6 | 0.00 | 2.16 | 0.18 | 86 | 1015.3 |
| 20260903131839 | 30 | 142 | 0.0 | 1.6 | 0.00 | 2.16 | 0.18 | 86 | 1015.3 |
| 20260903131517 | 30 | 122 | 0.0 | 0.0 | 0.00 | 2.16 | 0.18 | 87 | 1015.2 |
| 20260903131314 | 30 | 133 | 0.0 | 0.0 | 0.00 | 2.16 | 0.18 | 88 | 1015.3 |
| 20260903130831 | 30 | 130 | 0.0 | 0.0 | 0.00 | 2.16 | 0.18 | 89 | 1015.4 |
| 20260903130326 | 30 | 108 | 0.0 | 0.0 | 0.00 | 2.16 | 0.18 | 90 | 1015.4 |
| 20260903130004 | 29 | 21 | 0.0 | 0.0 | 0.00 | 2.16 | 0.18 | 92 | 1015.4 |
| 20260903125822 | 30 | 21 | 0.0 | 0.0 | 0.00 | 2.16 | 0.18 | 93 | 1015.6 |
| 20260903125320 | 30 | 15 | 0.0 | 0.0 | 0.00 | 2.16 | 0.18 | 95 | 1015.6 |
| 20260903124837 | 28 | 15 | 0.0 | 0.0 | 0.00 | 2.16 | 0.18 | 95 | 1015.7 |
| 20260903124522 | 28 | 15 | 0.0 | 0.0 | 0.00 | 2.16 | 0.18 | 95 | 1015.6 |
| 20260903124331 | 28 | 15 | 0.0 | 0.0 | 0.00 | 2.16 | 0.18 | 95 | 1015.8 |
| 20260903123827 | 27 | 15 | 0.0 | 0.0 | 0.00 | 2.16 | 0.18 | 95 | 1015.8 |
| 20260903123324 | 27 | 15 | 0.0 | 0.0 | 0.00 | 2.16 | 0.18 | 95 | 1015.6 |
| 20260903123006 | 26 | 15 | 0.0 | 0.0 | 0.00 | 2.16 | 0.18 | 95 | 1015.5 |
| 20260903122820 | 26 | 15 | 0.0 | 0.0 | 0.00 | 2.16 | 0.18 | 95 | 1015.6 |
| 20260903122317 | 26 | 15 | 0.0 | 0.0 | 0.00 | 2.16 | 0.18 | 95 | 1015.6 |
| 20260903121813 | 26 | 15 | 0.0 | 0.0 | 0.00 | 2.16 | 0.18 | 95 | 1015.5 |
| 20260903121523 | 26 | 15 | 0.0 | 0.0 | 0.00 | 2.16 | 0.18 | 95 | 1015.4 |
| 20260903121330 | 26 | 15 | 0.0 | 0.0 | 0.00 | 2.16 | 0.18 | 95 | 1015.5 |
| 20260903120849 | 26 | 15 | 0.0 | 0.0 | 0.00 | 2.16 | 0.18 | 95 | 1015.5 |
| 20260903120345 | 25 | 15 | 0.0 | 0.0 | 0.00 | 2.16 | 0.18 | 95 | 1015.5 |
| 20260903120021 | 25 | 15 | 0.0 | 0.0 | 0.00 | 2.16 | 0.18 | 95 | 1015.3 |
| 20260903115820 | 25 | 15 | 0.0 | 0.0 | 0.00 | 2.16 | 0.18 | 95 | 1015.4 |
| 20260903115319 | 25 | 15 | 0.0 | 0.0 | 0.00 | 2.16 | 0.18 | 95 | 1015.4 |
| 20260903114816 | 25 | 15 | 0.0 | 0.0 | 0.00 | 2.16 | 0.18 | 95 | 1015.4 |
| 20260903114509 | 25 | 15 | 0.0 | 0.0 | 0.00 | 2.16 | 0.18 | 95 | 1015.2 |
| 20260903114334 | 25 | 15 | 0.0 | 0.0 | 0.00 | 2.16 | 0.18 | 95 | 1015.3 |
| 20260903113830 | 25 | 15 | 0.0 | 0.0 | 0.00 | 2.16 | 0.18 | 95 | 1015.3 |
| 20260903113329 | 25 | 15 | 0.0 | 0.0 | 0.00 | 2.16 | 0.18 | 95 | 1015.2 |
| 20260903113034 | 25 | 15 | 0.0 | 0.0 | 0.00 | 2.16 | 0.18 | 95 | 1015.1 |
| 20260903112848 | 25 | 15 | 0.0 | 0.0 | 0.00 | 2.16 | 0.18 | 95 | 1015.2 |
| 20260903112324 | 25 | 15 | 0.0 | 0.0 | 0.00 | 2.16 | 0.18 | 95 | 1015.1 |
| 20260903111822 | 25 | 15 | 0.0 | 0.0 | 0.00 | 2.16 | 0.18 | 95 | 1015.0 |
| 20260903111552 | 24 | 48 | 0.0 | 0.0 | 0.00 | 2.16 | 0.18 | 95 | 1015.0 |
| 20260903111321 | 25 | 48 | 0.0 | 0.0 | 0.00 | 2.16 | 0.18 | 95 | 1015.1 |
| 20260903110818 | 25 | 48 | 0.0 | 0.0 | 0.00 | 2.16 | 0.18 | 95 | 1014.9 |
| 20260903110315 | 25 | 48 | 0.0 | 0.0 | 0.00 | 2.16 | 0.18 | 95 | 1015.0 |
| 20260903110047 | 24 | 48 | 0.0 | 0.0 | 0.00 | 2.16 | 0.18 | 95 | 1014.8 |
| 20260903105829 | 25 | 48 | 0.0 | 0.0 | 0.00 | 2.16 | 0.18 | 95 | 1014.8 |
| 20260903105325 | 25 | 48 | 0.0 | 0.0 | 0.00 | 2.16 | 0.18 | 95 | 1014.7 |
| 20260903104822 | 25 | 48 | 0.0 | 0.0 | 0.00 | 2.16 | 0.18 | 95 | 1014.5 |
| 20260903104533 | 24 | 48 | 0.0 | 0.0 | 0.00 | 2.16 | 0.18 | 95 | 1014.4 |
| 20260903104339 | 25 | 48 | 0.0 | 0.0 | 0.00 | 2.16 | 0.18 | 95 | 1014.4 |
| 20260903103838 | 25 | 48 | 0.0 | 0.0 | 0.00 | 2.16 | 0.18 | 95 | 1014.2 |
| 20260903103336 | 25 | 48 | 0.0 | 0.0 | 0.00 | 2.16 | 0.18 | 95 | 1014.3 |
| 20260903103014 | 24 | 48 | 0.0 | 0.0 | 0.00 | 2.16 | 0.18 | 95 | 1014.1 |
| 20260903102834 | 24 | 48 | 0.0 | 0.0 | 0.00 | 2.16 | 0.18 | 94 | 1014.2 |
| 20260903101823 | 24 | 48 | 0.0 | 0.0 | 0.00 | 2.16 | 0.18 | 94 | 1014.0 |
| 20260903101515 | 24 | 48 | 0.0 | 0.0 | 0.00 | 2.16 | 0.18 | 94 | 1014.0 |
| 20260903101322 | 25 | 48 | 0.0 | 0.0 | 0.00 | 2.16 | 0.18 | 94 | 1014.1 |
| 20260903100819 | 25 | 48 | 0.0 | 0.0 | 0.00 | 2.16 | 0.18 | 95 | 1014.1 |
| 20260903100337 | 25 | 48 | 0.0 | 0.0 | 0.00 | 2.16 | 0.18 | 95 | 1013.9 |
| 20260903100035 | 24 | 48 | 0.0 | 0.0 | 0.00 | 2.16 | 0.18 | 95 | 1013.8 |
| 20260903095832 | 25 | 48 | 0.0 | 0.0 | 0.00 | 2.16 | 0.18 | 94 | 1013.9 |
| 20260903095327 | 25 | 48 | 0.0 | 0.0 | 0.00 | 2.16 | 0.18 | 94 | 1013.9 |
| 20260903094825 | 25 | 48 | 0.0 | 0.0 | 0.00 | 2.16 | 0.18 | 94 | 1013.8 |
| 20260903094524 | 24 | 48 | 0.0 | 0.0 | 0.00 | 2.16 | 0.18 | 94 | 1013.8 |
| 20260903094322 | 25 | 48 | 0.0 | 0.0 | 0.00 | 2.16 | 0.18 | 94 | 1013.9 |
| 20260903093818 | 25 | 48 | 0.0 | 0.0 | 0.00 | 2.16 | 0.18 | 94 | 1013.9 |
| 20260903093315 | 25 | 48 | 0.0 | 0.0 | 0.00 | 2.16 | 0.18 | 95 | 1013.8 |
| 20260903093020 | 25 | 48 | 0.0 | 0.0 | 0.00 | 2.16 | 0.18 | 95 | 1013.8 |
| 20260903092832 | 25 | 48 | 0.0 | 0.0 | 0.00 | 2.16 | 0.18 | 95 | 1013.9 |
| 20260903092348 | 25 | 47 | 0.0 | 0.0 | 0.00 | 2.16 | 0.18 | 94 | 1013.8 |
| 20260903091823 | 25 | 48 | 0.0 | 0.0 | 0.00 | 2.16 | 0.18 | 95 | 1013.8 |
| 20260903091536 | 24 | 48 | 0.0 | 0.0 | 0.00 | 2.16 | 0.18 | 94 | 1013.7 |
| 20260903091319 | 25 | 48 | 0.0 | 0.0 | 0.00 | 2.16 | 0.18 | 94 | 1013.9 |
| 20260903090817 | 25 | 48 | 0.0 | 0.0 | 0.00 | 2.16 | 0.18 | 94 | 1013.8 |
| 20260903090315 | 25 | 48 | 0.0 | 0.0 | 0.00 | 2.16 | 0.18 | 94 | 1013.8 |
| 20260903090030 | 24 | 48 | 0.0 | 0.0 | 0.00 | 2.16 | 0.18 | 94 | 1013.7 |
| 20260903085833 | 25 | 48 | 0.0 | 0.0 | 0.00 | 2.16 | 0.18 | 94 | 1013.8 |
| 20260903085331 | 25 | 48 | 0.0 | 0.0 | 0.00 | 2.16 | 0.18 | 94 | 1013.8 |
| 20260903084828 | 25 | 48 | 0.0 | 0.0 | 0.00 | 2.16 | 0.18 | 94 | 1013.8 |
| 20260903084512 | 24 | 48 | 0.0 | 0.0 | 0.00 | 2.16 | 0.18 | 94 | 1013.7 |
| 20260903084342 | 25 | 48 | 0.0 | 0.0 | 0.00 | 2.16 | 0.18 | 94 | 1013.9 |
| 20260903083817 | 24 | 48 | 0.0 | 0.0 | 0.00 | 2.16 | 0.18 | 94 | 1013.9 |
| 20260903083332 | 24 | 48 | 0.0 | 0.0 | 0.00 | 2.16 | 0.18 | 94 | 1013.9 |
| 20260903083045 | 24 | 48 | 0.0 | 0.0 | 0.00 | 2.16 | 0.18 | 94 | 1013.8 |
| 20260903082827 | 24 | 48 | 0.0 | 0.0 | 0.00 | 2.16 | 0.18 | 94 | 1014.0 |
| 20260903082324 | 24 | 48 | 0.0 | 0.0 | 0.00 | 2.16 | 0.18 | 94 | 1013.9 |
| 20260903081821 | 24 | 48 | 0.0 | 0.0 | 0.00 | 2.16 | 0.18 | 94 | 1013.9 |
| 20260903081534 | 24 | 48 | 0.0 | 0.0 | 0.00 | 2.16 | 0.18 | 94 | 1013.8 |
| 20260903081316 | 24 | 48 | 0.0 | 1.6 | 0.00 | 2.16 | 0.18 | 94 | 1013.8 |
| 20260903080834 | 24 | 49 | 0.0 | 1.6 | 0.00 | 2.16 | 0.18 | 94 | 1013.8 |
| 20260903080330 | 24 | 114 | 0.0 | 0.0 | 0.00 | 2.16 | 0.18 | 94 | 1013.9 |
| 20260903080019 | 24 | 114 | 0.0 | 0.0 | 0.00 | 2.16 | 0.18 | 94 | 1013.8 |
| 20260903075848 | 24 | 114 | 0.0 | 0.0 | 0.00 | 2.16 | 0.18 | 94 | 1014.0 |
| 20260903075323 | 24 | 114 | 0.0 | 0.0 | 0.00 | 2.16 | 0.18 | 94 | 1013.9 |
| 20260903074820 | 24 | 114 | 0.0 | 0.0 | 0.00 | 2.16 | 0.18 | 94 | 1013.9 |
| 20260903074516 | 24 | 114 | 0.0 | 0.0 | 0.00 | 2.16 | 0.18 | 94 | 1013.9 |
| 20260903074317 | 24 | 114 | 0.0 | 0.0 | 0.00 | 2.16 | 0.18 | 94 | 1014.0 |
| 20260903073834 | 25 | 115 | 0.0 | 0.0 | 0.00 | 2.16 | 0.18 | 94 | 1013.9 |
| 20260903073329 | 24 | 114 | 0.0 | 0.0 | 0.00 | 2.16 | 0.18 | 94 | 1014.0 |
| 20260903073012 | 24 | 114 | 0.0 | 0.0 | 0.00 | 2.16 | 0.18 | 94 | 1013.9 |
| 20260903072826 | 24 | 114 | 0.0 | 0.0 | 0.00 | 2.16 | 0.18 | 94 | 1014.0 |
| 20260903072323 | 24 | 114 | 0.0 | 0.0 | 0.00 | 2.16 | 0.18 | 94 | 1014.1 |
| 20260903071822 | 24 | 114 | 0.0 | 0.0 | 0.00 | 2.16 | 0.18 | 94 | 1014.1 |
| 20260903071550 | 24 | 114 | 0.0 | 0.0 | 0.00 | 2.16 | 0.18 | 94 | 1014.0 |
| 20260903071321 | 24 | 115 | 0.0 | 0.0 | 0.00 | 2.16 | 0.18 | 94 | 1014.1 |
| 20260903070817 | 24 | 115 | 0.0 | 0.0 | 0.00 | 2.16 | 0.18 | 94 | 1014.4 |
| 20260903070314 | 24 | 115 | 0.0 | 0.0 | 0.00 | 2.16 | 0.18 | 94 | 1014.4 |
| 20260903070030 | 24 | 114 | 0.0 | 0.0 | 0.00 | 2.16 | 0.18 | 94 | 1014.3 |
| 20260903065822 | 25 | 115 | 0.0 | 0.0 | 0.00 | 2.16 | 0.18 | 94 | 1014.3 |
| 20260903065320 | 25 | 114 | 0.0 | 1.6 | 0.00 | 2.16 | 0.18 | 94 | 1014.4 |
| 20260903064818 | 25 | 115 | 0.0 | 0.0 | 0.00 | 2.16 | 0.18 | 94 | 1014.3 |
| 20260903064520 | 24 | 114 | 0.0 | 0.0 | 0.00 | 2.16 | 0.18 | 94 | 1014.1 |
| 20260903064334 | 25 | 114 | 0.0 | 0.0 | 0.00 | 2.16 | 0.18 | 94 | 1014.2 |
| 20260903063851 | 25 | 114 | 0.0 | 0.0 | 0.00 | 2.16 | 0.18 | 94 | 1014.2 |
| 20260903063326 | 25 | 114 | 0.0 | 1.6 | 0.00 | 2.16 | 0.18 | 94 | 1014.2 |
| 20260903063043 | 24 | 115 | 0.0 | 1.6 | 0.00 | 2.16 | 0.18 | 94 | 1014.2 |
| 20260903062822 | 25 | 118 | 0.0 | 1.6 | 0.00 | 2.16 | 0.18 | 94 | 1014.2 |
| 20260903062318 | 25 | 118 | 0.0 | 0.0 | 0.00 | 2.16 | 0.18 | 94 | 1014.1 |
| 20260903061837 | 25 | 118 | 0.0 | 0.0 | 0.00 | 2.16 | 0.18 | 94 | 1014.1 |
| 20260903061540 | 24 | 118 | 0.0 | 0.0 | 0.00 | 2.16 | 0.18 | 94 | 1014.0 |
| 20260903061354 | 25 | 118 | 0.0 | 0.0 | 0.00 | 2.16 | 0.18 | 94 | 1014.1 |
| 20260903060830 | 25 | 118 | 0.0 | 0.0 | 0.00 | 2.16 | 0.18 | 94 | 1014.1 |
| 20260903060347 | 25 | 118 | 0.0 | 1.6 | 0.00 | 2.16 | 0.18 | 94 | 1014.2 |
| 20260903060029 | 24 | 118 | 0.0 | 1.6 | 0.00 | 2.16 | 0.18 | 94 | 1014.1 |
| 20260903055822 | 25 | 118 | 0.0 | 1.6 | 0.00 | 2.16 | 0.18 | 94 | 1014.3 |
| 20260903055320 | 25 | 118 | 0.0 | 0.0 | 0.00 | 2.16 | 0.18 | 94 | 1014.5 |
| 20260903054816 | 24 | 118 | 0.0 | 0.0 | 0.00 | 2.16 | 0.18 | 94 | 1014.6 |
| 20260903054511 | 24 | 118 | 0.0 | 1.6 | 0.00 | 2.16 | 0.18 | 94 | 1014.6 |
| 20260903054333 | 24 | 118 | 0.0 | 1.6 | 0.00 | 2.16 | 0.18 | 94 | 1014.7 |
| 20260903053830 | 24 | 118 | 0.0 | 3.2 | 0.00 | 2.16 | 0.18 | 94 | 1014.8 |
| 20260903053326 | 25 | 118 | 0.0 | 3.2 | 0.00 | 2.16 | 0.18 | 94 | 1014.9 |
| 20260903053055 | 24 | 118 | 0.0 | 3.2 | 0.03 | 2.16 | 0.18 | 94 | 1014.9 |
| 20260903052822 | 25 | 128 | 0.0 | 3.2 | 0.03 | 2.16 | 0.18 | 94 | 1015.0 |
| 20260903052319 | 25 | 127 | 0.0 | 1.6 | 0.03 | 2.16 | 0.18 | 94 | 1015.3 |
| 20260903051815 | 25 | 127 | 0.0 | 1.6 | 0.03 | 2.16 | 0.18 | 94 | 1015.4 |
| 20260903051540 | 24 | 120 | 0.0 | 1.6 | 0.05 | 2.16 | 0.18 | 94 | 1015.4 |
| 20260903051353 | 25 | 108 | 0.0 | 1.6 | 0.08 | 2.16 | 0.18 | 94 | 1015.4 |
| 20260903050827 | 25 | 124 | 0.0 | 0.0 | 0.10 | 2.16 | 0.18 | 94 | 1015.5 |
| 20260903050343 | 25 | 124 | 0.0 | 0.0 | 0.15 | 2.16 | 0.18 | 94 | 1015.4 |
| 20260903050038 | 24 | 124 | 0.0 | 0.0 | 0.18 | 2.16 | 0.18 | 94 | 1015.3 |
| 20260903045840 | 25 | 160 | 0.0 | 0.0 | 0.20 | 2.16 | 0.18 | 94 | 1015.4 |
| 20260903045355 | 25 | 160 | 0.0 | 1.6 | 0.28 | 2.16 | 0.18 | 93 | 1015.6 |
| 20260903044832 | 24 | 347 | 0.0 | 1.6 | 0.53 | 2.16 | 0.18 | 93 | 1015.8 |
| 20260903044506 | 24 | 347 | 0.0 | 0.0 | 0.66 | 2.16 | 0.18 | 93 | 1015.7 |
| 20260903044328 | 24 | 347 | 0.0 | 0.0 | 0.69 | 2.16 | 0.18 | 93 | 1015.9 |
| 20260903043824 | 25 | 347 | 0.0 | 0.0 | 0.74 | 2.16 | 0.18 | 93 | 1015.9 |
| 20260903043319 | 25 | 347 | 0.0 | 4.8 | 0.76 | 2.16 | 0.18 | 93 | 1016.1 |
| 20260903043044 | 24 | 347 | 0.0 | 4.8 | 0.71 | 2.13 | 0.15 | 93 | 1016.0 |
| 20260903042837 | 25 | 347 | 0.0 | 4.8 | 0.76 | 2.13 | 0.15 | 93 | 1016.2 |
| 20260903042352 | 25 | 145 | 0.0 | 0.0 | 0.99 | 2.13 | 0.15 | 93 | 1016.3 |
| 20260903041826 | 25 | 145 | 0.0 | 1.6 | 1.83 | 2.11 | 0.13 | 93 | 1016.3 |
| 20260903041513 | 24 | 145 | 0.0 | 1.6 | 2.06 | 2.11 | 0.13 | 93 | 1016.2 |
| 20260903041324 | 25 | 157 | 0.0 | 1.6 | 2.03 | 2.08 | 0.10 | 93 | 1016.3 |
| 20260903040821 | 24 | 155 | 0.0 | 0.0 | 2.03 | 2.06 | 0.08 | 93 | 1016.4 |
| 20260903040338 | 25 | 156 | 0.0 | 0.0 | 2.01 | 2.01 | 0.03 | 93 | 1016.5 |
| 20260903040050 | 24 | 156 | 0.0 | 0.0 | 1.98 | 1.98 | 0.00 | 93 | 1016.4 |
| 20260903035830 | 25 | 155 | 0.0 | 3.2 | 1.96 | 1.96 | 1.96 | 93 | 1016.5 |
| 20260903035326 | 25 | 158 | 0.0 | 3.2 | 1.83 | 1.83 | 1.83 | 93 | 1016.5 |
| 20260903034823 | 25 | 117 | 1.6 | 3.2 | 1.57 | 1.57 | 1.57 | 93 | 1016.7 |
| 20260903034546 | 25 | 145 | 0.0 | 3.2 | 1.50 | 1.50 | 1.50 | 93 | 1016.6 |
| 20260903034320 | 25 | 123 | 0.0 | 0.0 | 1.47 | 1.47 | 1.47 | 92 | 1016.5 |
| 20260903033838 | 25 | 108 | 0.0 | 0.0 | 1.42 | 1.42 | 1.42 | 92 | 1016.5 |
| 20260903033332 | 25 | 108 | 0.0 | 1.6 | 1.40 | 1.40 | 1.40 | 92 | 1016.7 |
| 20260903033116 | 25 | 108 | 0.0 | 1.6 | 1.40 | 1.40 | 1.40 | 92 | 1016.6 |
| 20260903032827 | 25 | 108 | 0.0 | 1.6 | 1.37 | 1.37 | 1.37 | 92 | 1016.8 |
| 20260903032325 | 25 | 293 | 0.0 | 0.0 | 1.09 | 1.09 | 1.09 | 91 | 1016.6 |
| 20260903031820 | 25 | 201 | 0.0 | 0.0 | 0.23 | 0.23 | 0.23 | 91 | 1016.9 |
| 20260903031545 | 25 | 310 | 0.0 | 0.0 | 0.05 | 0.05 | 0.05 | 91 | 1016.7 |
| 20260903031338 | 25 | 310 | 0.0 | 1.6 | 0.05 | 0.05 | 0.05 | 90 | 1016.7 |
| 20260903030814 | 25 | 26 | 0.0 | 1.6 | 0.03 | 0.03 | 0.03 | 90 | 1016.8 |
| 20260903030331 | 25 | 144 | 0.0 | 3.2 | 0.00 | 0.00 | 0.00 | 89 | 1016.7 |
| 20260903030004 | 25 | 288 | 0.0 | 3.2 | 0.00 | 0.00 | 0.00 | 89 | 1016.6 |
| 20260903025828 | 26 | 288 | 0.0 | 3.2 | 0.00 | 0.00 | 0.00 | 89 | 1016.6 |
| 20260903025326 | 26 | 281 | 0.0 | 8.0 | 0.00 | 0.00 | 0.00 | 88 | 1016.5 |
| 20260903024823 | 26 | 314 | 1.6 | 8.0 | 0.00 | 0.00 | 0.00 | 88 | 1016.6 |
| 20260903024553 | 26 | 323 | 0.0 | 4.8 | 0.00 | 0.00 | 0.00 | 88 | 1016.4 |
| 20260903024340 | 26 | 347 | 1.6 | 4.8 | 0.00 | 0.00 | 0.00 | 87 | 1016.5 |
| 20260903023816 | 27 | 309 | 0.0 | 4.8 | 0.00 | 0.00 | 0.00 | 87 | 1016.5 |
| 20260903023329 | 27 | 12 | 1.6 | 4.8 | 0.00 | 0.00 | 0.00 | 87 | 1016.5 |
| 20260903023016 | 27 | 168 | 0.0 | 4.8 | 0.00 | 0.00 | 0.00 | 86 | 1016.2 |
| 20260903022826 | 27 | 150 | 1.6 | 4.8 | 0.00 | 0.00 | 0.00 | 86 | 1016.2 |
| 20260903022321 | 27 | 160 | 1.6 | 6.4 | 0.00 | 0.00 | 0.00 | 85 | 1016.2 |
| 20260903021820 | 27 | 139 | 0.0 | 6.4 | 0.00 | 0.00 | 0.00 | 83 | 1016.0 |
| 20260903021558 | 27 | 117 | 1.6 | 6.4 | 0.00 | 0.00 | 0.00 | 83 | 1015.9 |
| 20260903021337 | 28 | 242 | 1.6 | 4.8 | 0.00 | 0.00 | 0.00 | 83 | 1015.9 |
| 20260903020832 | 28 | 134 | 0.0 | 3.2 | 0.00 | 0.00 | 0.00 | 84 | 1015.6 |
| 20260903020330 | 28 | 125 | 0.0 | 0.0 | 0.00 | 0.00 | 0.00 | 86 | 1015.8 |
| 20260903020028 | 28 | 125 | 0.0 | 0.0 | 0.00 | 0.00 | 0.00 | 86 | 1015.6 |
| 20260903015826 | 28 | 125 | 0.0 | 0.0 | 0.00 | 0.00 | 0.00 | 86 | 1015.6 |
| 20260903015323 | 28 | 135 | 0.0 | 0.0 | 0.00 | 0.00 | 0.00 | 86 | 1015.4 |
| 20260903014818 | 28 | 67 | 0.0 | 4.8 | 0.00 | 0.00 | 0.00 | 86 | 1015.4 |
| 20260903014520 | 28 | 89 | 0.0 | 4.8 | 0.00 | 0.00 | 0.00 | 86 | 1015.3 |
| 20260903014335 | 28 | 115 | 0.0 | 4.8 | 0.00 | 0.00 | 0.00 | 86 | 1015.4 |
| 20260903013853 | 28 | 122 | 0.0 | 3.2 | 0.00 | 0.00 | 0.00 | 86 | 1015.4 |
| 20260903013328 | 28 | 127 | 1.6 | 3.2 | 0.00 | 0.00 | 0.00 | 86 | 1015.3 |
| 20260903013046 | 28 | 145 | 1.6 | 3.2 | 0.00 | 0.00 | 0.00 | 86 | 1015.1 |
| 20260903012827 | 28 | 120 | 1.6 | 3.2 | 0.00 | 0.00 | 0.00 | 86 | 1015.2 |
| 20260903012325 | 28 | 140 | 0.0 | 4.8 | 0.00 | 0.00 | 0.00 | 86 | 1015.2 |
| 20260903011823 | 28 | 72 | 1.6 | 6.4 | 0.00 | 0.00 | 0.00 | 86 | 1015.2 |
| 20260903011526 | 28 | 76 | 0.0 | 6.4 | 0.00 | 0.00 | 0.00 | 85 | 1015.2 |